User: anonymous
Location: Pine Mountain Observatory
(43.7910°N, 120.9377°W)
Time: 18:50:12
(UTC-07:00)
Language:

Meteor 2-19 Rocket - Orbit

View from above orbital plane
View from above orbital plane
View from above satellite
View from above satellite

Ground track
Ground track

The orbit data is extracted from the following two-line orbital elements,

1 20671U 90057B   14244.24206463  .00000051  00000-0  32115-4 0   611
2 20671 082.5447 102.8453 0013931 303.8689 194.1229 13.84575537221927
Epoch (UTC): 01 September 2014 05:48:34
Eccentricity: 0.0013931
inclination: 82.5447°
perigee height: 937 km
apogee height: 958 km
right ascension of ascending node: 102.8453°
argument of perigee: 303.8689°
revolutions per day: 13.84575537
mean anomaly at epoch: 194.1229°
orbit number at epoch: 22192

The dashed part of the orbit path shows where the satellite is in the earth's shadow,  

DLR